Regional Weather Roundup
Issued by NWS Bismarck, ND

Home | Current Version | Previous Version | Text Only | Print | Product List | Glossary On
Versions: 1 2 3 4 5 6 7 8 9 10 11 12 13 14 15 16 17 18 19 20 21 22 23 24 25 26 27 28 29 30 31 32 33 34 35 36 37 38 39 40 41 42 43 44 45 46 47 48 49 50
667
ASUS43 KBIS 091402
RWRBIS

NWR BROADCAST TEXT
NATIONAL WEATHER SERVICE BISMARCK ND
800 AM CST FRI DEC 09 2016

NOTE: "FAIR" INDICATES FEW OR NO CLOUDS BELOW 12,000 FEET WITH NO
SIGNIFICANT WEATHER AND/OR OBSTRUCTIONS TO VISIBILITY.


CITY           SKY/WX    TMP DP  RH WIND       PRES   REMARKS
WILLISTON      CLOUDY   -14 -18  82 CALM      30.57R
MINOT          CLOUDY   -12 -16  82 W6        30.54R WCI -26
MINOT AFB      CLOUDY   -15 -21  77 NW10      30.54R WCI -35
BISMARCK       CLOUDY   -12 -16  82 W6        30.57R FOG     WCI -26
DICKINSON      ICE FOG  -21 -25  81 S5        30.44S VSB 1/2 WCI -34
GARRISON         N/A    -14 -18  82 NW9       30.53R WCI -33
HETTINGER ARPT CLOUDY   -14 -17  87 CALM      30.44R
JAMESTOWN      CLEAR    -10 -14  82 N7        30.53R WCI -25
CARRINGTON     FAIR     -13 -17  84 W8        30.55S WCI -30
HAZEN          CLOUDY    -8 -15  71 W10       30.58R WCI -26
STANLEY        FAIR     -18 -24  76 W6        30.51R WCI -33
TIOGA          FAIR     -17 -20  83 NW7       30.52R WCI -33
WATFORD CITY   FAIR     -20 -27  69 SW5       30.54S WCI -33
$$

CITY           SKY/WX    TMP DP  RH WIND       PRES   REMARKS
GRAND FORKS    CLOUDY     2  -4  76 W7        30.57S WCI -11
GRAND FORKS AF CLOUDY    -1  -7  75 NW7       30.56F WCI -14
DEVILS LAKE    CLEAR    -10 -14  82 NW8       30.53F WCI -26
FARGO          CLOUDY     8   1  73 NW8       30.57S WCI  -4
GRAFTON        CLOUDY     5   0  78 N8        30.59S WCI  -8
GWINNER        PTSUNNY    0  -6  78 W7        30.56S WCI -13
LANGDON        FAIR     -11 -17  77 W7        30.50S WCI -26
$$

CITY           SKY/WX    TMP DP  RH WIND       PRES   REMARKS
ABERDEEN       CLOUDY    -6 -11  79 NW6       30.58S WCI -19
MOBRIDGE       CLOUDY    -4 -10  75 NW8       30.51S WCI -19
BUFFALO          N/A     -6 -10  83 NE8       30.28S WCI -21
RAPID CITY     LGT SNOW  -2  -7  79 N13       30.31S WCI -20
GLASGOW        CLOUDY    -5  -9  83 E8        30.49S WCI -20
SIDNEY         CLOUDY   -18 -23  77 CALM      30.56S
WOLF POINT     CLOUDY    -9 -16  71 NE3       30.55F
GLENDIVE       CLEAR    -14 -18  82 NE6       30.47F WCI -28
MILES CITY     CLOUDY    -6 -11  79 NE9       30.41S WCI -23
BAKER          CLOUDY   -10 -15  78 E7        30.38F WCI -25
$$

CITY           SKY/WX    TMP DP  RH WIND       PRES   REMARKS
BILLINGS       LGT SNOW   1  -3  83 NE8       30.27R FOG     WCI -13
GREAT FALLS    LGT SNOW  -3  -8  79 N5        30.28S WCI -13
$$





USA.gov is the U.S. government's official web portal to all federal, state and local government web resources and services.